GW5156 Weather Reports


Display with metric or nautical units.
time (UTC)temp
F
wind
direction
speed
MPH
gust
MPH
rain 1hr
in
rain 24hr
in
rain mn
in
humidity
%
barometer
mb
20260510220155 83 270 4.0 6.0 0.00 0.00 0.00 43 1016.0
20260510215655 83 258 2.0 3.0 0.00 0.00 0.00 42 1016.0
20260510215157 84 245 4.0 7.0 0.00 0.00 0.00 42 1016.0
20260510214656 84 282 2.0 4.0 0.00 0.00 0.00 43 1016.0
20260510214155 84 258 2.0 3.0 0.00 0.00 0.00 43 1016.0
20260510213657 83 321 2.0 5.0 0.00 0.00 0.00 43 1016.0
20260510213155 83 355 2.0 3.0 0.00 0.00 0.00 43 1016.0
20260510212655 83 38 2.0 6.0 0.00 0.00 0.00 42 1016.0
20260510212155 83 349 2.0 3.0 0.00 0.00 0.00 43 1016.0
20260510211655 83 175 2.0 3.0 0.00 0.00 0.00 42 1016.0
20260510211156 82 241 3.0 4.0 0.00 0.00 0.00 43 1016.0
20260510210656 82 213 3.0 5.0 0.00 0.00 0.00 43 1016.0
20260510210155 82 246 5.0 7.0 0.00 0.00 0.00 44 1016.0
20260510205655 82 8 3.0 5.0 0.00 0.00 0.00 45 1016.0
20260510205155 82 237 5.0 9.0 0.00 0.00 0.00 43 1016.0
20260510204656 82 275 3.0 5.0 0.00 0.00 0.00 44 1016.0
20260510204155 82 219 4.0 6.0 0.00 0.00 0.00 45 1016.0
20260510203656 82 262 3.0 5.0 0.00 0.00 0.00 45 1016.0
20260510203155 82 228 7.0 10.0 0.00 0.00 0.00 46 1016.0
20260510202655 82 101 4.0 5.0 0.00 0.00 0.00 47 1016.0
20260510202155 83 201 4.0 8.0 0.00 0.00 0.00 45 1016.0
20260510201655 83 147 4.0 6.0 0.00 0.00 0.00 45 1016.0
20260510201155 82 251 4.0 8.0 0.00 0.00 0.00 45 1016.0
20260510200655 82 233 3.0 5.0 0.00 0.00 0.00 46 1016.0
20260510200155 82 196 5.0 8.0 0.00 0.00 0.00 46 1016.0
20260510195656 82 315 2.0 4.0 0.00 0.00 0.00 46 1016.0
20260510195155 82 227 4.0 8.0 0.00 0.00 0.00 48 1016.0
20260510194655 82 189 3.0 5.0 0.00 0.00 0.00 48 1016.0
20260510194155 83 216 3.0 5.0 0.00 0.00 0.00 48 1016.0
20260510193657 83 256 2.0 4.0 0.00 0.00 0.00 46 1017.0
20260510193155 83 46 2.0 4.0 0.00 0.00 0.00 47 1017.0
20260510192655 83 235 3.0 5.0 0.00 0.00 0.00 46 1017.0
20260510192156 82 324 1.0 2.0 0.00 0.00 0.00 46 1017.0
20260510191655 81 29 2.0 4.0 0.00 0.00 0.00 49 1017.0
20260510191155 82 321 2.0 3.0 0.00 0.00 0.00 48 1017.0
20260510190656 82 336 1.0 3.0 0.00 0.00 0.00 50 1017.0
20260510190155 82 218 1.0 2.0 0.00 0.00 0.00 52 1017.0
20260510185655 81 290 2.0 5.0 0.00 0.00 0.00 54 1017.0
20260510185155 80 0 2.0 3.0 0.00 0.00 0.00 52 1017.0
20260510184655 80 254 4.0 7.0 0.00 0.00 0.00 53 1017.0
20260510184155 80 12 2.0 4.0 0.00 0.00 0.00 54 1017.0
20260510183655 81 64 2.0 4.0 0.00 0.00 0.00 54 1017.0
20260510183155 82 315 2.0 4.0 0.00 0.00 0.00 54 1017.0
20260510182656 82 324 2.0 6.0 0.00 0.00 0.00 53 1017.0
20260510182155 82 69 2.0 3.0 0.00 0.00 0.00 53 1017.0
20260510181656 81 340 2.0 4.0 0.00 0.00 0.00 53 1017.0
20260510181155 81 65 4.0 7.0 0.00 0.00 0.00 51 1017.0
20260510180655 80 51 2.0 4.0 0.00 0.00 0.00 50 1017.0
20260510180155 80 219 1.0 4.0 0.00 0.00 0.00 53 1017.0
20260510175655 80 281 2.0 3.0 0.00 0.00 0.00 55 1017.0
20260510175156 80 250 2.0 4.0 0.00 0.00 0.00 56 1017.0
20260510174655 80 353 1.0 2.0 0.00 0.00 0.00 55 1017.0
20260510174156 80 45 3.0 6.0 0.00 0.00 0.00 55 1017.0
20260510173655 79 22 2.0 4.0 0.00 0.00 0.00 56 1017.0
20260510173155 78 228 2.0 4.0 0.00 0.00 0.00 56 1017.0
20260510172655 78 137 3.0 4.0 0.00 0.00 0.00 55 1017.0
20260510172155 78 226 2.0 3.0 0.00 0.00 0.00 55 1017.0
20260510171658 78 244 6.0 7.0 0.00 0.00 0.00 56 1017.0
20260510171155 78 216 4.0 7.0 0.00 0.00 0.00 54 1017.0
20260510170656 78 258 2.0 4.0 0.00 0.00 0.00 58 1017.0
20260510170156 78 280 2.0 6.0 0.00 0.00 0.00 61 1018.0
20260510165655 77 228 5.0 12.0 0.00 0.00 0.00 63 1018.0
20260510165155 77 123 4.0 5.0 0.00 0.00 0.00 64 1018.0
20260510164655 76 208 2.0 5.0 0.00 0.00 0.00 64 1018.0
20260510164155 76 187 4.0 7.0 0.00 0.00 0.00 65 1018.0
20260510163655 76 274 5.0 6.0 0.00 0.00 0.00 70 1018.0
20260510163155 75 293 3.0 5.0 0.00 0.00 0.00 69 1018.0
20260510162655 75 256 5.0 7.0 0.00 0.00 0.00 73 1018.0
20260510162156 75 206 5.0 8.0 0.00 0.00 0.00 73 1018.0
20260510161655 75 111 2.0 4.0 0.00 0.00 0.00 72 1018.0
20260510160805 75 274 6.0 7.0 0.00 0.00 0.00 73 1018.0
20260510160155 75 327 2.0 4.0 0.00 0.00 0.00 75 1018.0
20260510155656 74 236 6.0 8.0 0.00 0.00 0.00 74 1018.0
20260510155156 74 292 1.0 2.0 0.00 0.00 0.00 77 1018.0
20260510154656 74 256 4.0 6.0 0.00 0.00 0.00 76 1018.0
20260510154155 73 100 3.0 4.0 0.00 0.00 0.00 78 1018.0
20260510153656 73 92 2.0 4.0 0.00 0.00 0.00 79 1018.0
20260510153155 73 218 3.0 4.0 0.00 0.00 0.00 80 1018.0
20260510152655 72 210 3.0 4.0 0.00 0.00 0.00 80 1018.0
20260510152156 72 197 2.0 3.0 0.00 0.00 0.00 80 1018.0
20260510151655 72 200 1.0 4.0 0.00 0.00 0.00 82 1018.0
20260510151155 71 233 1.0 3.0 0.00 0.00 0.00 82 1018.0
20260510150655 70 146 3.0 4.0 0.00 0.00 0.00 85 1018.0
20260510150156 70 186 3.0 4.0 0.00 0.00 0.00 85 1018.0
20260510145656 71 204 4.0 5.0 0.00 0.00 0.00 84 1018.0
20260510145155 71 38 1.0 3.0 0.00 0.00 0.00 85 1018.0
20260510144656 70 195 1.0 2.0 0.00 0.00 0.00 86 1018.0
20260510144156 69 250 1.0 2.0 0.00 0.00 0.00 87 1018.0
20260510143655 69 306 1.0 2.0 0.00 0.00 0.00 87 1018.0
20260510143155 69 271 1.0 2.0 0.00 0.00 0.00 89 1018.0
20260510142656 67 344 1.0 2.0 0.00 0.00 0.00 93 1018.0
20260510142155 66 247 3.0 4.0 0.00 0.00 0.00 93 1018.0
20260510141655 65 116 2.0 4.0 0.00 0.00 0.00 96 1018.0
20260510141155 65 274 4.0 5.0 0.00 0.00 0.00 98 1018.0
20260510140655 65 251 2.0 3.0 0.00 0.00 0.00 99 1018.0
20260510140156 64 216 3.0 4.0 0.00 0.00 0.00 100 1018.0
20260510135655 64 276 2.0 3.0 0.00 0.00 0.00 99 1018.0
20260510135156 64 247 3.0 4.0 0.00 0.00 0.00 99 1018.0
20260510134655 64 274 1.0 2.0 0.00 0.00 0.00 99 1018.0
20260510134155 64 251 2.0 3.0 0.00 0.00 0.00 99 1018.0
20260510133655 63 225 3.0 4.0 0.00 0.00 0.00 99 1018.0
20260510133155 63 213 2.0 3.0 0.00 0.00 0.00 99 1018.0
20260510132655 63 221 2.0 3.0 0.00 0.00 0.00 99 1018.0
20260510132156 63 203 1.0 2.0 0.00 0.00 0.00 99 1018.0
20260510131657 63 146 1.0 2.0 0.00 0.00 0.00 99 1018.0
20260510131155 63 228 1.0 2.0 0.00 0.00 0.00 99 1018.0
20260510130656 63 339 1.0 4.0 0.00 0.00 0.00 99 1018.0
20260510130155 62 276 0.0 2.0 0.00 0.00 0.00 99 1017.0
20260510125655 62 276 0.0 1.0 0.00 0.00 0.00 99 1017.0
20260510125155 62 344 1.0 2.0 0.00 0.00 0.00 99 1017.0
20260510124658 62 325 0.0 1.0 0.00 0.00 0.00 99 1017.0
20260510124155 62 321 1.0 2.0 0.00 0.00 0.00 99 1017.0
20260510123655 62 269 1.0 1.0 0.00 0.00 0.00 99 1017.0
20260510123155 62 242 1.0 1.0 0.00 0.00 0.00 99 1017.0
20260510122656 61 26 0.0 1.0 0.00 0.00 0.00 99 1017.0
20260510122155 61 55 1.0 1.0 0.00 0.00 0.00 99 1017.0
20260510121655 61 347 1.0 2.0 0.00 0.00 0.00 99 1017.0
20260510121155 61 24 1.0 1.0 0.00 0.00 0.00 99 1017.0
20260510120655 60 5 1.0 2.0 0.00 0.00 0.00 99 1017.0
20260510120157 60 315 0.0 2.0 0.00 0.00 0.00 99 1017.0
20260510115655 60 339 1.0 2.0 0.00 0.00 0.00 99 1017.0
20260510115155 59 318 1.0 1.0 0.00 0.00 0.00 99 1017.0
20260510114655 59 136 0.0 0.0 0.00 0.00 0.00 99 1017.0
20260510114155 59 108 0.0 1.0 0.00 0.00 0.00 99 1017.0
20260510113655 59 179 1.0 2.0 0.00 0.00 0.00 99 1017.0
20260510113155 58 124 1.0 2.0 0.00 0.00 0.00 99 1016.0
20260510112655 58 296 1.0 1.0 0.00 0.00 0.00 99 1016.0
20260510112156 58 83 0.0 1.0 0.00 0.00 0.00 99 1016.0
20260510111655 58 164 1.0 2.0 0.00 0.00 0.00 99 1016.0
20260510111157 58 216 1.0 2.0 0.00 0.00 0.00 99 1016.0
20260510110655 57 208 0.0 1.0 0.00 0.00 0.00 99 1016.0
20260510110155 57 130 1.0 2.0 0.00 0.00 0.00 99 1016.0
20260510105655 57 168 0.0 1.0 0.00 0.00 0.00 99 1016.0
20260510105156 57 133 1.0 2.0 0.00 0.00 0.00 99 1016.0
20260510104658 57 0 0.0 0.0 0.00 0.00 0.00 99 1016.0
20260510104155 56 6 0.0 1.0 0.00 0.00 0.00 99 1016.0
20260510103214 56 42 0.0 1.0 0.00 0.00 0.00 99 1016.0
20260510102655 57 139 0.0 1.0 0.00 0.00 0.00 99 1015.0
20260510102155 57 115 2.0 2.0 0.00 0.00 0.00 99 1015.0
20260510101655 57 0 0.0 0.0 0.00 0.00 0.00 99 1015.0
20260510101155 57 98 0.0 1.0 0.00 0.00 0.00 99 1015.0
20260510100655 57 292 1.0 1.0 0.00 0.00 0.00 99 1015.0
20260510100156 57 280 0.0 0.0 0.00 0.00 0.00 99 1015.0
20260510095655 57 298 0.0 1.0 0.00 0.00 0.00 99 1015.0
20260510095155 57 341 0.0 1.0 0.00 0.00 0.00 99 1015.0
20260510094655 57 108 0.0 1.0 0.00 0.00 0.00 99 1015.0
20260510094155 57 43 1.0 1.0 0.00 0.00 0.00 99 1015.0
20260510093655 57 44 1.0 1.0 0.00 0.00 0.00 99 1015.0
20260510093155 57 330 0.0 1.0 0.00 0.00 0.00 99 1015.0
20260510092655 57 347 0.0 1.0 0.00 0.00 0.00 99 1015.0
20260510092157 57 302 0.0 0.0 0.00 0.00 0.00 99 1015.0
20260510091656 57 37 0.0 1.0 0.00 0.00 0.00 99 1015.0
20260510091155 57 96 0.0 1.0 0.00 0.00 0.00 99 1015.0
20260510090655 58 330 0.0 1.0 0.00 0.00 0.00 99 1015.0
20260510090155 58 5 0.0 0.0 0.00 0.00 0.00 99 1015.0
20260510085655 58 88 0.0 1.0 0.00 0.00 0.00 99 1015.0
20260510085155 58 105 0.0 1.0 0.00 0.00 0.00 99 1015.0
20260510084655 58 338 0.0 0.0 0.00 0.00 0.00 99 1015.0
20260510084157 58 109 0.0 1.0 0.00 0.00 0.00 99 1015.0
20260510083655 58 37 1.0 1.0 0.00 0.00 0.00 99 1015.0
20260510083155 58 14 0.0 1.0 0.00 0.00 0.00 99 1015.0
20260510082655 58 0 0.0 0.0 0.00 0.00 0.00 99 1015.0
20260510082155 58 189 0.0 1.0 0.00 0.00 0.00 99 1015.0
20260510081655 58 332 1.0 2.0 0.00 0.00 0.00 99 1014.0
20260510081155 58 53 0.0 1.0 0.00 0.00 0.00 99 1014.0
20260510080655 58 72 1.0 1.0 0.00 0.00 0.00 99 1014.0
20260510080155 58 47 0.0 1.0 0.00 0.00 0.00 99 1014.0
20260510075656 58 305 0.0 0.0 0.00 0.00 0.00 99 1014.0
20260510075155 59 0 0.0 0.0 0.00 0.00 0.00 99 1014.0
20260510074655 59 62 0.0 0.0 0.00 0.00 0.00 99 1014.0
20260510074155 59 59 0.0 1.0 0.00 0.00 0.00 99 1014.0
20260510073655 59 78 0.0 1.0 0.00 0.00 0.00 99 1014.0
20260510073155 59 74 0.0 1.0 0.00 0.00 0.00 99 1014.0
20260510072655 59 57 0.0 1.0 0.00 0.00 0.00 99 1014.0
20260510072203 59 35 0.0 1.0 0.00 0.00 0.00 99 1014.0
20260510071655 59 0 0.0 0.0 0.00 0.00 0.00 100 1014.0
20260510071155 59 29 0.0 1.0 0.00 0.00 0.00 100 1014.0
20260510070655 59 63 0.0 1.0 0.00 0.00 0.00 100 1014.0
20260510070155 59 63 0.0 1.0 0.00 0.00 0.00 100 1014.0
20260510065655 59 60 0.0 1.0 0.00 0.00 0.00 100 1014.0
20260510065155 59 101 0.0 1.0 0.00 0.00 0.00 100 1014.0
20260510064655 59 61 0.0 1.0 0.00 0.00 0.00 100 1014.0
20260510064155 59 87 0.0 1.0 0.00 0.00 0.00 100 1014.0
20260510063655 59 0 0.0 0.0 0.00 0.00 0.00 100 1014.0
20260510063155 59 74 0.0 1.0 0.00 0.00 0.00 100 1014.0
20260510062655 59 218 0.0 1.0 0.00 0.00 0.00 99 1014.0
20260510062155 59 98 0.0 2.0 0.00 0.00 0.00 100 1014.0
20260510061657 59 0 0.0 0.0 0.00 0.00 0.00 99 1014.0
20260510061155 59 84 0.0 0.0 0.00 0.00 0.00 99 1014.0
20260510060656 60 65 0.0 1.0 0.00 0.00 0.00 99 1014.0
20260510060155 60 0 0.0 0.0 0.00 0.00 0.00 99 1014.0
20260510055655 60 0 0.0 0.0 0.00 0.00 0.00 99 1015.0
20260510055155 60 98 0.0 1.0 0.00 0.00 0.00 99 1014.0
20260510054655 60 95 1.0 2.0 0.00 0.00 0.00 99 1014.0
20260510054155 60 345 0.0 1.0 0.00 0.00 0.00 99 1015.0
20260510053656 60 342 0.0 1.0 0.00 0.00 0.00 99 1015.0
20260510053155 60 86 0.0 1.0 0.00 0.00 0.00 99 1015.0
20260510052655 60 63 0.0 1.0 0.00 0.00 0.00 98 1015.0
20260510052155 60 12 0.0 1.0 0.00 0.00 0.00 98 1015.0
20260510051659 60 218 0.0 1.0 0.00 0.00 0.00 98 1015.0
20260510051155 60 103 0.0 1.0 0.00 0.00 0.00 98 1014.0
20260510050655 60 117 0.0 1.0 0.00 0.00 0.00 98 1014.0
20260510050158 60 39 0.0 0.0 0.00 0.00 0.00 98 1014.0
20260510045655 61 106 0.0 2.0 0.00 0.00 0.00 98 1014.0
20260510045155 61 40 0.0 2.0 0.00 0.00 0.00 98 1015.0
20260510044656 61 103 0.0 1.0 0.00 0.00 0.00 97 1015.0
20260510044155 61 71 0.0 1.0 0.00 0.00 0.00 97 1015.0
20260510043655 61 125 0.0 3.0 0.00 0.00 0.00 97 1015.0
20260510043155 61 100 0.0 1.0 0.00 0.00 0.00 97 1015.0
20260510042655 61 25 0.0 1.0 0.00 0.00 0.00 97 1015.0
20260510042155 61 68 0.0 1.0 0.00 0.00 0.00 97 1015.0
20260510041655 61 66 0.0 0.0 0.00 0.00 0.00 96 1015.0
20260510041156 61 332 0.0 2.0 0.00 0.00 0.00 96 1015.0
20260510040655 61 21 0.0 1.0 0.00 0.00 0.00 96 1015.0
20260510040155 61 85 0.0 1.0 0.00 0.00 0.00 96 1015.0
20260510035655 62 108 0.0 0.0 0.00 0.00 0.00 95 1015.0
20260510035155 62 68 0.0 1.0 0.00 0.00 0.00 95 1015.0
20260510034656 62 87 0.0 1.0 0.00 0.00 0.00 95 1015.0
20260510034156 62 75 0.0 1.0 0.00 0.00 0.00 95 1015.0
20260510033655 62 64 0.0 1.0 0.00 0.00 0.00 94 1015.0
20260510033156 62 342 1.0 2.0 0.00 0.00 0.00 94 1015.0
20260510032655 62 35 0.0 1.0 0.00 0.00 0.00 94 1015.0
20260510032155 62 103 0.0 2.0 0.00 0.00 0.00 93 1015.0
20260510031658 62 109 2.0 3.0 0.00 0.00 0.00 93 1015.0
20260510031156 63 347 0.0 2.0 0.00 0.00 0.00 93 1015.0
20260510030656 63 43 1.0 1.0 0.00 0.00 0.00 93 1015.0
20260510030155 63 82 2.0 2.0 0.00 0.00 0.00 92 1015.0
20260510025656 63 21 0.0 1.0 0.00 0.00 0.00 92 1014.0
20260510025157 63 41 0.0 1.0 0.00 0.00 0.00 92 1014.0
20260510024655 63 24 1.0 1.0 0.00 0.00 0.00 92 1014.0
20260510024155 63 35 1.0 1.0 0.00 0.00 0.00 92 1014.0
20260510023656 63 29 1.0 1.0 0.00 0.00 0.00 91 1014.0
20260510023155 64 354 1.0 2.0 0.00 0.00 0.00 91 1014.0
20260510022655 64 59 1.0 1.0 0.00 0.00 0.00 91 1014.0
20260510022156 64 26 0.0 1.0 0.00 0.00 0.00 90 1014.0
20260510021655 64 25 0.0 1.0 0.00 0.00 0.00 89 1014.0
20260510021155 64 53 0.0 1.0 0.00 0.00 0.00 89 1014.0
20260510020659 65 337 1.0 2.0 0.00 0.00 0.00 89 1014.0
20260510020155 65 17 1.0 1.0 0.00 0.00 0.00 88 1014.0
20260510015655 65 40 1.0 1.0 0.00 0.00 0.00 88 1014.0
20260510015155 65 22 1.0 1.0 0.00 0.00 0.00 87 1013.0
20260510014656 65 4 0.0 1.0 0.00 0.00 0.00 87 1013.0
20260510014155 66 54 1.0 2.0 0.00 0.00 0.00 86 1013.0
20260510013655 66 15 0.0 1.0 0.00 0.00 0.00 86 1013.0
20260510013155 66 342 1.0 1.0 0.00 0.00 0.00 86 1013.0
20260510012655 66 352 2.0 2.0 0.00 0.00 0.00 86 1013.0
20260510012155 66 9 0.0 1.0 0.00 0.00 0.00 85 1013.0
20260510011656 66 352 1.0 2.0 0.00 0.00 0.00 85 1013.0
20260510011157 67 33 1.0 2.0 0.00 0.00 0.00 84 1013.0
20260510010655 67 39 0.0 0.0 0.00 0.00 0.00 83 1013.0
20260510010155 67 355 0.0 1.0 0.00 0.00 0.00 82 1013.0
20260510005655 67 38 1.0 1.0 0.00 0.00 0.00 82 1013.0
20260510005155 68 351 0.0 1.0 0.00 0.00 0.00 82 1013.0
20260510004655 68 355 0.0 1.0 0.00 0.00 0.00 81 1013.0
20260510004155 68 349 1.0 2.0 0.00 0.00 0.00 81 1012.0
20260510003655 69 51 0.0 1.0 0.00 0.00 0.00 79 1012.0
20260510003155 69 13 1.0 1.0 0.00 0.00 0.00 79 1012.0
20260510002655 70 271 0.0 1.0 0.00 0.00 0.00 78 1012.0
20260510002155 70 301 0.0 0.0 0.00 0.00 0.00 77 1012.0
20260510001656 70 21 0.0 1.0 0.00 0.00 0.00 77 1012.0
20260510001155 70 0 1.0 2.0 0.00 0.00 0.00 76 1012.0
20260510000655 71 23 0.0 1.0 0.00 0.00 0.00 76 1012.0
20260510000155 71 336 0.0 1.0 0.00 0.00 0.00 76 1012.0
20260509235655 72 42 0.0 1.0 0.00 0.00 0.00 75 1012.0
20260509235203 72 61 1.0 1.0 0.00 0.00 0.00 75 1012.0
20260509234655 72 11 1.0 2.0 0.00 0.00 0.00 74 1012.0
20260509234155 73 26 0.0 0.0 0.00 0.00 0.00 74 1012.0
20260509233655 73 32 1.0 2.0 0.00 0.00 0.00 73 1012.0
20260509233155 73 42 0.0 1.0 0.00 0.00 0.00 73 1012.0
20260509232655 73 355 1.0 2.0 0.00 0.00 0.00 72 1012.0
20260509232155 74 11 1.0 1.0 0.00 0.00 0.00 70 1012.0
20260509231655 74 25 1.0 2.0 0.00 0.00 0.00 68 1012.0
20260509231155 75 34 1.0 2.0 0.00 0.00 0.00 67 1012.0
20260509230655 75 356 0.0 1.0 0.00 0.00 0.00 65 1012.0
20260509230155 75 46 1.0 2.0 0.00 0.00 0.00 65 1012.0
20260509225656 75 353 0.0 1.0 0.00 0.00 0.00 66 1012.0
20260509225155 76 20 1.0 2.0 0.00 0.00 0.00 64 1012.0
20260509224655 76 272 0.0 1.0 0.00 0.00 0.00 60 1012.0
20260509224155 76 321 1.0 2.0 0.00 0.00 0.00 62 1012.0
20260509223656 76 56 1.0 2.0 0.00 0.00 0.00 62 1012.0
20260509223155 76 357 0.0 1.0 0.00 0.00 0.00 63 1012.0
20260509222656 76 306 1.0 3.0 0.00 0.00 0.00 63 1012.0
20260509222155 76 77 1.0 2.0 0.00 0.00 0.00 61 1012.0
20260509221655 76 14 1.0 2.0 0.00 0.00 0.00 61 1012.0
20260509221155 76 103 0.0 1.0 0.00 0.00 0.00 60 1011.0
20260509220655 76 53 1.0 3.0 0.00 0.00 0.00 61 1012.0